Location: Albuquerque Trailhead
(34.7934°N, 106.3736°W)
Time: 10:06:49
(UTC+00:00)

CAS-4A - Visible Passes

Search period start: 27 March 2023 00:00
Search period end: 06 April 2023 00:00
Orbit: 510 x 527 km, 43.0° (Epoch: 26 March)

Date Brightness Start Highest point End Pass type
(mag) Time Alt. Az. Time Alt. Az. Time Alt. Az.
27 Mar ? 11:42:35 33° SW 11:44:18 83° SSE 11:48:20 10° ENE visible
28 Mar ? 11:27:10 54° WSW 11:28:01 85° NNW 11:32:04 10° ENE visible
29 Mar ? 11:11:39 73° NW 11:11:44 74° NNW 11:15:45 10° ENE visible
30 Mar ? 10:56:03 54° NNE 10:56:03 54° NNE 10:59:24 10° ENE visible
30 Mar ? 12:32:12 10° WNW 12:35:37 26° N 12:39:04 10° NE visible
31 Mar ? 10:40:23 37° NE 10:40:23 37° NE 10:43:02 10° NE visible
31 Mar ? 12:15:57 10° WNW 12:19:20 25° N 12:22:44 10° NE visible
01 Apr ? 10:24:39 26° NE 10:24:39 26° NE 10:26:38 10° NE visible
01 Apr ? 11:59:40 10° WNW 12:03:02 25° N 12:06:23 10° NE visible
02 Apr ? 10:08:52 19° NE 10:08:52 19° NE 10:10:12 10° NE visible
02 Apr ? 11:43:49 12° NW 11:46:41 24° N 11:50:01 10° NE visible
03 Apr ? 09:53:04 14° NE 09:53:04 14° NE 09:53:44 10° NE visible
03 Apr ? 11:28:01 15° NW 11:30:19 24° N 11:33:39 10° NE visible
04 Apr ? 09:37:14 10° NE 09:37:14 10° NE 09:37:15 10° NE visible
04 Apr ? 11:12:10 18° NW 11:13:56 24° N 11:17:15 10° ENE visible
05 Apr ? 10:56:21 21° NNW 10:57:31 24° N 11:00:50 10° ENE visible
